Location: Newark
(51.8900°N, 2.0780°W)
Time: 01:25:45
(UTC+00:00)

Envisat - Pass Details

Date: 29 November 2019
Orbit: 764 x 766 km, 98.1° (Epoch: 12 December)

Event Time Altitude Azimuth Distance (km) Brightness Sun altitude
Rises 17:45:51 0° 161° (SSE) 3,222 6.2 -15.2°
Reaches altitude 10° 17:48:09 10° 160° (SSE) 2,299 5.4 -15.5°
Maximum altitude 17:53:13 83° 73° (ENE) 779 2.9 -16.3°
Drops below altitude 10° 17:58:20 10° 347° (NNW) 2,315 5.5 -17.0°
Sets 18:00:39 0° 347° (NNW) 3,246 6.3 -17.4°
